EW6606 Weather Reports


Display with metric or nautical units.
time (UTC)temp
F
wind
direction
speed
MPH
gust
MPH
rain 1hr
in
rain 24hr
in
rain mn
in
humidity
%
barometer
mb
20260901172657 95 159 3.0 10.0 0.00 0.00 0.00 42 1019.9
20260901172150 94 208 1.0 6.0 0.00 0.00 0.00 44 1019.9
20260901171649 94 129 2.0 6.0 0.00 0.00 0.00 46 1019.8
20260901171149 94 89 0.0 3.0 0.00 0.00 0.00 50 1020.0
20260901170648 94 48 2.0 3.0 0.00 0.00 0.00 51 1020.0
20260901170143 94 234 4.0 7.0 0.00 0.00 0.00 51 1020.1
20260901165642 94 157 1.0 4.0 0.00 0.00 0.00 48 1020.2
20260901165137 94 342 4.0 4.0 0.00 0.00 0.00 49 1020.3
20260901164634 94 251 2.0 6.0 0.00 0.00 0.00 51 1020.4
20260901164128 93 80 3.0 5.0 0.00 0.00 0.00 49 1020.2
20260901163624 94 69 0.0 4.0 0.00 0.00 0.00 50 1020.3
20260901163122 94 298 1.0 4.0 0.00 0.00 0.00 51 1020.4
20260901162618 93 112 3.0 6.0 0.00 0.00 0.00 51 1020.5
20260901162112 93 180 2.0 6.0 0.00 0.00 0.00 52 1020.4
20260901161611 93 220 0.0 4.0 0.00 0.00 0.00 53 1020.6
20260901161110 92 69 0.0 2.0 0.00 0.00 0.00 53 1020.6
20260901160607 92 199 5.0 6.0 0.00 0.00 0.00 52 1020.5
20260901155600 91 204 5.0 6.0 0.00 0.00 0.00 57 1020.6
20260901155051 91 340 2.0 4.0 0.00 0.00 0.00 58 1020.5
20260901154551 91 350 3.0 4.0 0.00 0.00 0.00 59 1020.7
20260901154046 91 10 2.0 3.0 0.00 0.00 0.00 60 1020.5
20260901153546 90 338 2.0 4.0 0.00 0.00 0.00 61 1020.7
20260901153040 90 258 4.0 6.0 0.00 0.00 0.00 62 1020.6
20260901152535 89 359 0.0 2.0 0.00 0.00 0.00 62 1020.8
20260901152034 89 210 1.0 3.0 0.00 0.00 0.00 61 1020.7
20260901151530 89 174 2.0 4.0 0.00 0.00 0.00 62 1020.8
20260901151029 89 341 0.0 4.0 0.00 0.00 0.00 63 1020.7
20260901150527 88 339 1.0 4.0 0.00 0.00 0.00 65 1020.8
20260901150026 88 245 2.0 3.0 0.00 0.00 0.00 65 1021.0
20260901145524 87 265 2.0 5.0 0.00 0.00 0.00 64 1020.7
20260901145019 87 358 0.0 3.0 0.00 0.00 0.00 67 1021.1
20260901144515 87 332 3.0 3.0 0.00 0.00 0.00 67 1021.0
20260901144010 86 334 2.0 3.0 0.00 0.00 0.00 70 1021.0
20260901143505 86 6 0.0 3.0 0.00 0.00 0.00 72 1020.7
20260901143001 86 12 1.0 3.0 0.00 0.00 0.00 72 1021.0
20260901142455 85 359 1.0 2.0 0.00 0.00 0.00 72 1021.2
20260901141950 85 293 0.0 2.0 0.00 0.00 0.00 72 1021.1
20260901141444 84 157 2.0 4.0 0.00 0.00 0.00 72 1021.0
20260901140940 84 214 2.0 4.0 0.00 0.00 0.00 74 1021.0
20260901140438 83 178 3.0 4.0 0.00 0.00 0.00 74 1021.1
20260901135932 83 169 2.0 5.0 0.00 0.00 0.00 75 1021.0
20260901135427 82 133 3.0 4.0 0.00 0.00 0.00 76 1021.0
20260901134923 82 173 1.0 3.0 0.00 0.00 0.00 76 1021.2
20260901134419 82 104 2.0 5.0 0.00 0.00 0.00 78 1021.0
20260901133918 81 97 1.0 4.0 0.00 0.00 0.00 79 1020.8
20260901133412 80 174 0.0 3.0 0.00 0.00 0.00 82 1021.1
20260901132911 80 158 2.0 4.0 0.00 0.00 0.00 84 1021.0
20260901132406 78 174 2.0 5.0 0.00 0.00 0.00 87 1021.0
20260901131905 78 24 1.0 3.0 0.00 0.00 0.00 88 1021.2
20260901131404 77 120 3.0 4.0 0.00 0.00 0.00 88 1021.0
20260901130900 76 299 0.0 2.0 0.00 0.00 0.00 88 1021.1
20260901130354 76 315 0.0 1.0 0.00 0.00 0.00 89 1021.0
20260901125852 76 14 0.0 1.0 0.00 0.00 0.00 89 1020.8
20260901125351 75 40 2.0 2.0 0.00 0.00 0.00 89 1020.7
20260901124846 75 322 0.0 2.0 0.00 0.00 0.00 89 1020.6
20260901124342 75 322 0.0 2.0 0.00 0.00 0.00 89 1020.6
20260901123841 74 351 0.0 1.0 0.00 0.00 0.00 89 1020.6
20260901123336 74 342 0.0 1.0 0.00 0.00 0.00 89 1020.4
20260901122834 74 14 0.0 1.0 0.00 0.00 0.00 89 1020.5
20260901122329 73 17 0.0 2.0 0.00 0.00 0.00 89 1020.4
20260901121828 73 309 0.0 1.0 0.00 0.00 0.00 89 1020.4
20260901121324 73 315 0.0 2.0 0.00 0.00 0.00 89 1020.5
20260901120819 73 310 0.0 1.0 0.00 0.00 0.00 89 1020.4
20260901120313 73 7 0.0 0.0 0.00 0.00 0.00 89 1020.4
20260901115808 73 308 0.0 1.0 0.00 0.00 0.00 89 1020.2
20260901115306 73 293 0.0 1.0 0.00 0.00 0.00 89 1020.4
20260901114755 73 1 0.0 2.0 0.00 0.00 0.00 88 1020.2
20260901114251 73 51 0.0 2.0 0.00 0.00 0.00 88 1020.1
20260901113749 73 142 0.0 1.0 0.00 0.00 0.00 88 1020.1
20260901113244 73 50 0.0 1.0 0.00 0.00 0.00 88 1020.0
20260901112743 73 280 0.0 1.0 0.00 0.00 0.00 88 1019.9
20260901112238 73 15 0.0 1.0 0.00 0.00 0.00 88 1019.8
20260901111733 73 13 0.0 1.0 0.00 0.00 0.00 88 1019.7
20260901111232 73 345 0.0 0.0 0.00 0.00 0.00 88 1019.8
20260901110726 73 345 0.0 0.0 0.00 0.00 0.00 88 1019.7
20260901110221 73 345 0.0 0.0 0.00 0.00 0.00 88 1019.8
20260901105718 73 345 0.0 1.0 0.00 0.00 0.00 88 1019.6
20260901105218 73 7 0.0 0.0 0.00 0.00 0.00 88 1019.6
20260901104714 73 6 0.0 1.0 0.00 0.00 0.00 88 1019.9
20260901104209 73 38 0.0 0.0 0.00 0.00 0.00 88 1019.7
20260901103708 73 38 0.0 0.0 0.00 0.00 0.00 87 1019.6
20260901103204 74 38 0.0 0.0 0.00 0.00 0.00 87 1019.4
20260901102704 74 37 0.0 1.0 0.00 0.00 0.00 87 1019.5
20260901102203 74 351 0.0 1.0 0.00 0.00 0.00 87 1019.2
20260901101659 74 343 0.0 1.0 0.00 0.00 0.00 87 1019.5
20260901101159 74 30 0.0 1.0 0.00 0.00 0.00 87 1019.5
20260901100653 74 0 0.0 1.0 0.00 0.00 0.00 87 1019.4
20260901100148 74 256 0.0 1.0 0.00 0.00 0.00 87 1019.7
20260901095646 74 62 0.0 0.0 0.00 0.00 0.00 87 1019.5
20260901095144 74 62 0.0 1.0 0.00 0.00 0.00 87 1019.5
20260901094638 74 22 0.0 0.0 0.00 0.00 0.00 87 1019.4
20260901094133 74 36 0.0 1.0 0.00 0.00 0.00 86 1019.3
20260901093628 74 310 0.0 2.0 0.00 0.00 0.00 86 1019.6
20260901093127 74 12 1.0 2.0 0.00 0.00 0.00 86 1019.5
20260901092623 74 11 0.0 1.0 0.00 0.00 0.00 86 1019.3
20260901092119 75 13 0.0 1.0 0.00 0.00 0.00 86 1019.4
20260901091614 75 30 1.0 2.0 0.00 0.00 0.00 86 1019.3
20260901091110 75 309 0.0 1.0 0.00 0.00 0.00 85 1019.1
20260901090609 75 142 0.0 1.0 0.00 0.00 0.00 85 1019.2
20260901090105 75 25 0.0 1.0 0.00 0.00 0.00 85 1019.2
20260901085600 75 22 0.0 2.0 0.00 0.00 0.00 85 1019.0
20260901085056 75 23 1.0 2.0 0.00 0.00 0.00 85 1019.1
20260901084552 75 25 0.0 1.0 0.00 0.00 0.00 85 1018.9
20260901084048 75 0 0.0 1.0 0.00 0.00 0.00 85 1018.9
20260901083548 75 246 0.0 1.0 0.00 0.00 0.00 85 1018.9
20260901083046 75 348 0.0 2.0 0.00 0.00 0.00 85 1019.0
20260901082541 75 35 0.0 2.0 0.00 0.00 0.00 84 1018.9
20260901082037 75 126 0.0 2.0 0.00 0.00 0.00 84 1018.8
20260901081532 76 49 0.0 1.0 0.00 0.00 0.00 84 1018.8
20260901081026 76 25 0.0 1.0 0.00 0.00 0.00 84 1019.0
20260901080526 76 321 0.0 1.0 0.00 0.00 0.00 84 1018.7
20260901080020 76 315 0.0 0.0 0.00 0.00 0.00 84 1018.8
20260901075516 76 304 0.0 1.0 0.00 0.00 0.00 84 1018.7
20260901075015 76 35 0.0 1.0 0.00 0.00 0.00 84 1018.6
20260901074514 76 117 0.0 0.0 0.00 0.00 0.00 84 1018.8
20260901074009 76 129 0.0 1.0 0.00 0.00 0.00 84 1018.7
20260901073506 76 129 0.0 1.0 0.00 0.00 0.00 84 1018.7
20260901073001 76 142 0.0 1.0 0.00 0.00 0.00 84 1018.8
20260901072455 76 49 0.0 0.0 0.00 0.00 0.00 84 1018.9
20260901071945 76 49 0.0 0.0 0.00 0.00 0.00 84 1018.8
20260901071444 76 30 0.0 1.0 0.00 0.00 0.00 84 1018.8
20260901070943 76 7 0.0 0.0 0.00 0.00 0.00 84 1018.7
20260901070439 76 7 0.0 0.0 0.00 0.00 0.00 84 1018.7
20260901065937 76 7 0.0 0.0 0.00 0.00 0.00 84 1018.8
20260901065434 76 7 0.0 1.0 0.00 0.00 0.00 84 1018.7
20260901064928 76 150 0.0 0.0 0.00 0.00 0.00 84 1018.7
20260901064425 76 157 0.0 1.0 0.00 0.00 0.00 84 1018.6
20260901063922 76 154 0.0 0.0 0.00 0.00 0.00 84 1018.9
20260901063418 76 154 0.0 0.0 0.00 0.00 0.00 84 1018.9
20260901062914 77 129 0.0 1.0 0.00 0.00 0.00 84 1018.9
20260901062410 77 158 0.0 2.0 0.00 0.00 0.00 84 1018.9
20260901061905 77 129 0.0 0.0 0.00 0.00 0.00 84 1019.0
20260901061401 77 129 0.0 0.0 0.00 0.00 0.00 84 1018.9
20260901060855 77 129 0.0 0.0 0.00 0.00 0.00 83 1018.7
20260901060351 77 129 0.0 0.0 0.00 0.00 0.00 83 1018.9
20260901055850 77 129 0.0 0.0 0.00 0.00 0.00 83 1018.8
20260901055347 77 129 0.0 0.0 0.00 0.00 0.00 83 1018.9
20260901054843 77 120 1.0 2.0 0.00 0.00 0.00 83 1018.8
20260901054341 77 142 0.0 1.0 0.00 0.00 0.00 83 1018.8
20260901053836 77 113 0.0 0.0 0.00 0.00 0.00 82 1018.7
20260901053331 77 113 0.0 0.0 0.00 0.00 0.00 82 1018.8
20260901052827 77 113 0.0 1.0 0.00 0.00 0.00 82 1018.8
20260901052322 77 37 0.0 0.0 0.00 0.00 0.00 82 1018.9
20260901051820 77 37 0.0 0.0 0.00 0.00 0.00 82 1018.8
20260901051316 77 37 0.0 0.0 0.00 0.00 0.00 82 1019.0
20260901050811 77 37 0.0 0.0 0.00 0.00 0.00 82 1018.9
20260901050306 77 37 0.0 0.0 0.00 0.00 0.00 82 1018.9
20260901045756 77 37 0.0 1.0 0.00 0.00 0.00 82 1018.9
20260901045250 77 154 0.0 0.0 0.00 0.00 0.00 81 1018.8
20260901044746 77 154 0.0 1.0 0.00 0.00 0.00 81 1018.8
20260901044242 78 131 0.0 1.0 0.00 0.00 0.00 80 1018.9
20260901043737 78 142 0.0 1.0 0.00 0.00 0.00 80 1018.9
20260901043233 78 25 0.0 0.0 0.00 0.00 0.00 79 1018.8
20260901042732 78 25 0.0 0.0 0.00 0.00 0.00 79 1018.9
20260901042226 78 25 0.0 0.0 0.00 0.00 0.00 79 1018.9
20260901041723 78 157 0.0 0.0 0.00 0.00 0.00 79 1018.9
20260901041222 78 157 0.0 0.0 0.00 0.00 0.00 78 1018.9
20260901040717 78 157 0.0 0.0 0.00 0.00 0.00 78 1019.0
20260901040216 78 157 0.0 1.0 0.00 0.00 0.00 78 1019.1
20260901035715 79 142 0.0 0.0 0.00 0.00 0.00 78 1018.9
20260901035214 79 142 0.0 0.0 0.00 0.00 0.00 77 1019.0
20260901034708 79 142 0.0 0.0 0.00 0.00 0.00 77 1019.2
20260901034203 79 142 0.0 1.0 0.00 0.00 0.00 77 1019.2
20260901033702 80 141 0.0 1.0 0.00 0.00 0.00 76 1019.2
20260901033202 80 62 0.0 0.0 0.00 0.00 0.00 76 1019.4
20260901032700 80 62 0.0 0.0 0.00 0.00 0.00 75 1019.3
20260901032154 80 62 0.0 1.0 0.00 0.00 0.00 75 1019.1
20260901031645 80 89 0.0 1.0 0.00 0.00 0.00 74 1019.3
20260901031141 80 37 0.0 0.0 0.00 0.00 0.00 74 1019.2
20260901030641 80 82 0.0 1.0 0.00 0.00 0.00 74 1019.3
20260901030135 81 117 0.0 0.0 0.00 0.00 0.00 73 1019.3
20260901025630 81 117 0.0 1.0 0.00 0.00 0.00 73 1019.2
20260901025125 81 129 0.0 0.0 0.00 0.00 0.00 72 1019.3
20260901024624 81 129 0.0 0.0 0.00 0.00 0.00 72 1019.5
20260901024123 81 129 0.0 0.0 0.00 0.00 0.00 71 1019.2
20260901023623 81 129 0.0 0.0 0.00 0.00 0.00 71 1019.2
20260901023117 81 129 0.0 0.0 0.00 0.00 0.00 71 1019.3
20260901022613 82 129 0.0 1.0 0.00 0.00 0.00 70 1019.3
20260901022108 82 142 0.0 1.0 0.00 0.00 0.00 70 1019.2
20260901021604 82 129 0.0 0.0 0.00 0.00 0.00 69 1019.2
20260901021058 82 129 0.0 1.0 0.00 0.00 0.00 69 1019.1
20260901020554 83 142 0.0 0.0 0.00 0.00 0.00 68 1019.1
20260901020049 83 142 0.0 0.0 0.00 0.00 0.00 68 1019.1
20260901015545 83 142 0.0 0.0 0.00 0.00 0.00 68 1019.0
20260901015044 83 164 0.0 1.0 0.00 0.00 0.00 68 1018.9
20260901014540 83 117 0.0 0.0 0.00 0.00 0.00 67 1018.8
20260901014036 83 134 0.0 1.0 0.00 0.00 0.00 67 1018.9
20260901013531 84 135 0.0 0.0 0.00 0.00 0.00 66 1018.6
20260901013027 84 135 0.0 1.0 0.00 0.00 0.00 65 1018.6
20260901012526 84 142 0.0 1.0 0.00 0.00 0.00 64 1018.4
20260901012022 85 166 0.0 1.0 0.00 0.00 0.00 64 1018.3
20260901011519 85 205 0.0 1.0 0.00 0.00 0.00 63 1018.5
20260901011016 85 117 0.0 0.0 0.00 0.00 0.00 63 1018.3
20260901010511 86 117 0.0 1.0 0.00 0.00 0.00 63 1018.2
20260901010011 86 117 0.0 1.0 0.00 0.00 0.00 62 1018.0
20260901005505 86 124 0.0 0.0 0.00 0.00 0.00 61 1018.1
20260901005000 87 120 0.0 2.0 0.00 0.00 0.00 60 1018.0
20260901004500 87 117 0.0 1.0 0.00 0.00 0.00 60 1018.0
20260901003955 87 117 0.0 0.0 0.00 0.00 0.00 59 1018.0
20260901003450 87 124 0.0 1.0 0.00 0.00 0.00 59 1017.9
20260901002948 88 135 0.0 2.0 0.00 0.00 0.00 59 1017.9
20260901002448 88 142 1.0 2.0 0.00 0.00 0.00 58 1017.8
20260901001942 88 129 0.0 0.0 0.00 0.00 0.00 57 1017.8
20260901001438 88 129 0.0 1.0 0.00 0.00 0.00 57 1018.0
20260901000933 89 135 0.0 1.0 0.00 0.00 0.00 57 1018.0
20260901000428 89 77 0.0 3.0 0.00 0.00 0.00 57 1017.9
20260831235926 89 104 0.0 1.0 0.00 0.00 0.00 56 1018.1
20260831235423 89 100 0.0 2.0 0.00 0.00 0.00 56 1017.9
20260831234917 90 117 0.0 2.0 0.00 0.00 0.00 55 1017.8
20260831234412 90 55 0.0 2.0 0.00 0.00 0.00 55 1017.9
20260831233907 90 130 0.0 2.0 0.00 0.00 0.00 54 1017.9
20260831233402 90 147 0.0 3.0 0.00 0.00 0.00 54 1017.9
20260831232858 90 156 1.0 5.0 0.00 0.00 0.00 53 1018.0
20260831232353 90 193 1.0 2.0 0.00 0.00 0.00 53 1017.9
20260831231849 90 136 0.0 3.0 0.00 0.00 0.00 53 1017.9
20260831231346 90 199 0.0 1.0 0.00 0.00 0.00 53 1017.8
20260831230841 90 160 0.0 1.0 0.00 0.00 0.00 53 1017.9
20260831230335 90 205 0.0 0.0 0.00 0.00 0.00 53 1018.1
20260831225830 91 180 0.0 2.0 0.00 0.00 0.00 53 1018.1
20260831225324 91 89 0.0 1.0 0.00 0.00 0.00 52 1018.1
20260831224820 92 74 2.0 2.0 0.00 0.00 0.00 51 1018.0
20260831224315 92 72 1.0 3.0 0.00 0.00 0.00 51 1018.0
20260831223810 93 105 0.0 4.0 0.00 0.00 0.00 50 1018.1
20260831223306 93 140 4.0 4.0 0.00 0.00 0.00 49 1018.0
20260831222803 93 44 1.0 4.0 0.00 0.00 0.00 50 1017.9
20260831222258 93 131 2.0 4.0 0.00 0.00 0.00 49 1017.9
20260831221753 93 131 3.0 4.0 0.00 0.00 0.00 49 1018.0
20260831221248 93 324 1.0 3.0 0.00 0.00 0.00 50 1018.1
20260831220743 93 308 1.0 3.0 0.00 0.00 0.00 50 1018.1
20260831220238 93 0 2.0 3.0 0.00 0.00 0.00 49 1018.1
20260831215733 93 339 2.0 3.0 0.00 0.00 0.00 51 1018.0
20260831215229 92 183 0.0 5.0 0.00 0.00 0.00 49 1018.0
20260831214725 93 60 1.0 3.0 0.00 0.00 0.00 49 1018.1
20260831214222 93 197 3.0 4.0 0.00 0.00 0.00 49 1018.3
20260831213717 93 142 0.0 2.0 0.00 0.00 0.00 49 1018.3
20260831213214 93 6 0.0 2.0 0.00 0.00 0.00 51 1018.3
20260831212709 92 330 1.0 3.0 0.00 0.00 0.00 51 1018.2
20260831212206 92 8 0.0 2.0 0.00 0.00 0.00 52 1018.3
20260831211704 92 333 2.0 3.0 0.00 0.00 0.00 51 1018.3
20260831211159 92 297 0.0 1.0 0.00 0.00 0.00 51 1018.5
20260831210654 92 12 0.0 2.0 0.00 0.00 0.00 51 1018.4
20260831210150 92 356 1.0 2.0 0.00 0.00 0.00 50 1018.7
20260831205649 92 336 0.0 1.0 0.00 0.00 0.00 49 1018.6
20260831205145 92 167 2.0 3.0 0.00 0.00 0.00 49 1018.6
20260831204645 92 138 2.0 4.0 0.00 0.00 0.00 48 1018.4
20260831204143 93 85 3.0 7.0 0.00 0.00 0.00 47 1018.6
20260831203638 94 150 4.0 9.0 0.00 0.00 0.00 48 1018.5
20260831203138 94 164 2.0 5.0 0.00 0.00 0.00 48 1018.4
20260831202636 94 247 3.0 5.0 0.00 0.00 0.00 50 1018.6
20260831202131 94 82 3.0 4.0 0.00 0.00 0.00 50 1018.8
20260831201630 94 189 2.0 5.0 0.00 0.00 0.00 50 1018.8
20260831201125 93 342 3.0 3.0 0.00 0.00 0.00 53 1018.9
20260831200621 92 48 2.0 3.0 0.00 0.00 0.00 53 1019.1
20260831200116 92 126 2.0 3.0 0.00 0.00 0.00 54 1019.0
20260831195612 91 255 0.0 2.0 0.00 0.00 0.00 55 1019.0
20260831195107 91 333 0.0 0.0 0.00 0.00 0.00 55 1019.1
20260831194602 91 1 0.0 1.0 0.00 0.00 0.00 55 1019.2
20260831194056 91 359 2.0 2.0 0.00 0.00 0.00 54 1019.2
20260831193552 92 331 1.0 2.0 0.00 0.00 0.00 54 1019.2
20260831193051 92 284 0.0 2.0 0.00 0.00 0.00 53 1019.2
20260831192547 92 352 0.0 2.0 0.00 0.00 0.00 53 1019.4
20260831192042 92 348 1.0 4.0 0.00 0.00 0.00 53 1019.4
20260831191538 92 38 0.0 2.0 0.00 0.00 0.00 53 1019.4
20260831191033 92 269 2.0 2.0 0.00 0.00 0.00 52 1019.5
20260831190529 92 0 3.0 4.0 0.00 0.00 0.00 52 1019.4
20260831190027 91 6 2.0 3.0 0.00 0.00 0.00 55 1019.7
20260831185523 91 196 2.0 4.0 0.00 0.00 0.00 54 1019.5
20260831185019 90 190 3.0 3.0 0.00 0.00 0.00 55 1019.8
20260831184513 91 232 1.0 2.0 0.00 0.00 0.00 57 1019.8
20260831184008 91 343 0.0 2.0 0.00 0.00 0.00 56 1020.0
20260831183507 91 280 1.0 2.0 0.00 0.00 0.00 56 1019.9
20260831183007 91 321 0.0 3.0 0.00 0.00 0.00 55 1019.9
20260831182502 91 262 3.0 5.0 0.00 0.00 0.00 56 1020.2
20260831181957 91 7 0.0 2.0 0.00 0.00 0.00 56 1020.2
20260831181447 91 244 4.0 6.0 0.00 0.00 0.00 56 1020.1
20260831180942 91 290 2.0 3.0 0.00 0.00 0.00 56 1020.2
20260831180441 91 317 0.0 5.0 0.00 0.00 0.00 58 1020.3
20260831175941 90 355 2.0 3.0 0.00 0.00 0.00 58 1020.3
20260831175437 91 331 2.0 2.0 0.00 0.00 0.00 56 1020.2
20260831174933 91 19 2.0 3.0 0.00 0.00 0.00 55 1020.5
20260831174428 92 343 3.0 4.0 0.00 0.00 0.00 55 1020.4
20260831173927 91 75 0.0 7.0 0.00 0.00 0.00 55 1020.5
20260831173426 91 199 1.0 8.0 0.00 0.00 0.00 54 1020.6
20260831172922 91 137 4.0 5.0 0.00 0.00 0.00 56 1020.5